Time,TemperatureF,DewpointF,PressureIn,WindDirection,WindDirectionDegrees,WindSpeedMPH,WindSpeedGustMPH,Humidity,HourlyPrecipIn,Conditions,Clouds,dailyrainin,SoftwareType,DateUTC
2013-04-20 00:00:00,63.1,61.3,29.60,WNW,296,0.0,5.0,94,0.06,,,0.13,Wunderground v.1.15,2013-04-20 04:00:00,
2013-04-20 00:05:00,63.1,61.3,29.62,WNW,296,1.0,5.0,94,0.05,,,0.00,Wunderground v.1.15,2013-04-20 04:05:00,
2013-04-20 00:10:00,63.1,61.3,29.62,WNW,296,1.0,5.0,94,0.04,,,0.00,Wunderground v.1.15,2013-04-20 04:10:00,
2013-04-20 00:15:00,62.9,61.1,29.62,WNW,296,0.0,5.0,94,0.00,,,0.01,Wunderground v.1.15,2013-04-20 04:15:00,
2013-04-20 00:20:00,62.9,61.4,29.63,WNW,296,0.0,5.0,95,0.00,,,0.01,Wunderground v.1.15,2013-04-20 04:20:00,
2013-04-20 00:25:00,62.9,61.4,29.63,NW,325,1.0,5.0,95,0.00,,,0.01,Wunderground v.1.15,2013-04-20 04:25:00,
2013-04-20 00:30:00,61.0,59.0,29.63,WNW,298,3.0,5.0,93,0.00,,,0.01,Wunderground v.1.15,2013-04-20 04:30:00,
2013-04-20 00:35:00,58.1,55.8,29.65,NE,42,6.0,6.0,92,0.00,,,0.01,Wunderground v.1.15,2013-04-20 04:35:00,
2013-04-20 00:40:00,55.6,53.3,29.65,NW,321,6.0,6.0,92,0.00,,,0.01,Wunderground v.1.15,2013-04-20 04:40:00,
2013-04-20 00:45:00,53.8,51.5,29.65,NW,314,4.0,6.0,92,0.00,,,0.01,Wunderground v.1.15,2013-04-20 04:45:00,
2013-04-20 00:50:00,52.6,50.3,29.66,NW,308,4.0,5.0,92,0.00,,,0.02,Wunderground v.1.15,2013-04-20 04:50:00,
2013-04-20 00:55:00,52.2,49.9,29.66,NW,306,3.0,5.0,92,0.00,,,0.02,Wunderground v.1.15,2013-04-20 04:55:00,
2013-04-20 01:00:00,52.0,49.7,29.66,WNW,298,2.0,2.0,92,0.00,,,0.02,Wunderground v.1.15,2013-04-20 05:00:00,
2013-04-20 01:05:00,51.7,49.2,29.68,North,5,1.0,5.0,91,0.00,,,0.03,Wunderground v.1.15,2013-04-20 05:05:00,
2013-04-20 01:15:00,51.7,48.9,29.68,West,267,0.0,5.0,90,0.00,,,0.03,Wunderground v.1.15,2013-04-20 05:15:00,
2013-04-20 01:20:00,51.6,48.8,29.67,West,267,0.0,5.0,90,0.00,,,0.03,Wunderground v.1.15,2013-04-20 05:20:00,
2013-04-20 01:25:00,51.6,49.1,29.67,West,267,0.0,5.0,91,0.00,,,0.03,Wunderground v.1.15,2013-04-20 05:25:00,
2013-04-20 01:30:00,51.6,49.1,29.67,West,267,0.0,5.0,91,0.00,,,0.03,Wunderground v.1.15,2013-04-20 05:30:00,
2013-04-20 01:35:00,51.6,49.1,29.68,West,267,0.0,5.0,91,0.00,,,0.03,Wunderground v.1.15,2013-04-20 05:35:00,
2013-04-20 01:40:00,51.6,49.1,29.68,West,267,0.0,5.0,91,0.00,,,0.03,Wunderground v.1.15,2013-04-20 05:40:00,
2013-04-20 01:45:00,51.7,49.2,29.68,West,267,0.0,5.0,91,0.00,,,0.03,Wunderground v.1.15,2013-04-20 05:45:00,
2013-04-20 01:50:00,51.6,49.1,29.69,West,267,0.0,5.0,91,0.00,,,0.03,Wunderground v.1.15,2013-04-20 05:50:00,
2013-04-20 01:55:00,51.3,48.8,29.69,WNW,286,0.0,5.0,91,0.00,,,0.03,Wunderground v.1.15,2013-04-20 05:55:00,
2013-04-20 02:00:00,51.4,48.9,29.69,WNW,286,0.0,5.0,91,0.00,,,0.03,Wunderground v.1.15,2013-04-20 06:00:00,
2013-04-20 02:05:00,51.4,48.9,29.66,WNW,286,0.0,5.0,91,0.00,,,0.03,Wunderground v.1.15,2013-04-20 06:05:00,
2013-04-20 02:10:00,51.4,48.9,29.66,WNW,286,0.0,5.0,91,0.00,,,0.03,Wunderground v.1.15,2013-04-20 06:10:00,
2013-04-20 02:20:00,51.4,48.9,29.65,WNW,286,0.0,5.0,91,0.00,,,0.03,Wunderground v.1.15,2013-04-20 06:20:00,
2013-04-20 02:25:00,51.4,48.9,29.65,WNW,286,0.0,5.0,91,0.00,,,0.03,Wunderground v.1.15,2013-04-20 06:25:00,
2013-04-20 02:30:00,51.4,49.2,29.65,WNW,286,0.0,5.0,92,0.00,,,0.03,Wunderground v.1.15,2013-04-20 06:30:00,
2013-04-20 02:35:00,51.4,49.2,29.65,WNW,286,0.0,5.0,92,0.00,,,0.03,Wunderground v.1.15,2013-04-20 06:35:00,
2013-04-20 02:45:00,51.3,49.1,29.65,West,273,1.0,5.0,92,0.00,,,0.04,Wunderground v.1.15,2013-04-20 06:45:00,
2013-04-20 02:50:00,51.1,48.9,29.67,WNW,282,0.0,5.0,92,0.06,,,0.05,Wunderground v.1.15,2013-04-20 06:50:00,
2013-04-20 03:00:00,51.0,48.8,29.67,WSW,246,1.0,5.0,92,0.18,,,0.07,Wunderground v.1.15,2013-04-20 07:00:00,
2013-04-20 03:05:00,51.0,48.8,29.70,WSW,246,1.0,5.0,92,0.11,,,0.07,Wunderground v.1.15,2013-04-20 07:05:00,
2013-04-20 03:10:00,50.5,48.3,29.70,NW,314,2.0,2.0,92,0.19,,,0.09,Wunderground v.1.15,2013-04-20 07:10:00,
2013-04-20 03:15:00,50.5,48.6,29.70,NW,314,1.0,5.0,93,0.10,,,0.09,Wunderground v.1.15,2013-04-20 07:15:00,
2013-04-20 03:20:00,50.5,48.6,29.68,NW,314,0.0,5.0,93,0.06,,,0.09,Wunderground v.1.15,2013-04-20 07:20:00,
2013-04-20 03:30:00,50.5,48.6,29.68,WNW,283,1.0,1.0,93,0.04,,,0.10,Wunderground v.1.15,2013-04-20 07:30:00,
2013-04-20 03:35:00,50.4,48.5,29.68,WNW,283,0.0,5.0,93,0.07,,,0.11,Wunderground v.1.15,2013-04-20 07:35:00,
2013-04-20 03:40:00,50.4,48.5,29.68,WNW,283,0.0,5.0,93,0.07,,,0.11,Wunderground v.1.15,2013-04-20 07:40:00,
2013-04-20 03:45:00,50.4,48.5,29.68,WNW,292,0.0,5.0,93,0.04,,,0.11,Wunderground v.1.15,2013-04-20 07:45:00,
2013-04-20 03:50:00,50.4,48.5,29.69,West,275,1.0,1.0,93,0.00,,,0.11,Wunderground v.1.15,2013-04-20 07:50:00,
2013-04-20 03:55:00,50.4,48.7,29.69,West,275,0.0,5.0,94,0.00,,,0.11,Wunderground v.1.15,2013-04-20 07:55:00,
2013-04-20 04:00:00,50.4,48.7,29.69,West,275,0.0,5.0,94,0.00,,,0.11,Wunderground v.1.15,2013-04-20 08:00:00,
2013-04-20 04:05:00,50.4,48.7,29.69,West,275,0.0,5.0,94,0.00,,,0.12,Wunderground v.1.15,2013-04-20 08:05:00,
2013-04-20 04:15:00,50.4,48.7,29.69,West,275,0.0,5.0,94,0.00,,,0.12,Wunderground v.1.15,2013-04-20 08:15:00,
2013-04-20 04:20:00,50.5,48.8,29.70,West,275,0.0,5.0,94,0.00,,,0.12,Wunderground v.1.15,2013-04-20 08:20:00,
2013-04-20 04:25:00,50.4,48.7,29.70,West,275,0.0,5.0,94,0.00,,,0.12,Wunderground v.1.15,2013-04-20 08:25:00,
2013-04-20 04:35:00,50.4,48.7,29.71,West,275,1.0,5.0,94,0.00,,,0.12,Wunderground v.1.15,2013-04-20 08:35:00,
2013-04-20 04:40:00,50.4,48.7,29.71,West,275,0.0,5.0,94,0.00,,,0.12,Wunderground v.1.15,2013-04-20 08:40:00,
2013-04-20 04:45:00,50.4,48.7,29.71,West,275,0.0,5.0,94,0.00,,,0.12,Wunderground v.1.15,2013-04-20 08:45:00,
2013-04-20 04:50:00,50.5,49.1,29.71,West,275,0.0,5.0,95,0.00,,,0.12,Wunderground v.1.15,2013-04-20 08:50:00,
2013-04-20 04:55:00,50.5,49.1,29.71,West,275,0.0,5.0,95,0.00,,,0.12,Wunderground v.1.15,2013-04-20 08:55:00,
2013-04-20 05:00:00,50.5,49.1,29.71,NW,311,0.0,5.0,95,0.00,,,0.12,Wunderground v.1.15,2013-04-20 09:00:00,
2013-04-20 05:10:00,50.4,49.0,29.72,SW,223,2.0,5.0,95,0.00,,,0.12,Wunderground v.1.15,2013-04-20 09:10:00,
2013-04-20 05:15:00,50.2,48.8,29.72,SW,229,2.0,5.0,95,0.00,,,0.12,Wunderground v.1.15,2013-04-20 09:15:00,
2013-04-20 05:25:00,49.8,48.1,29.75,West,273,2.0,4.0,94,0.00,,,0.12,Wunderground v.1.15,2013-04-20 09:25:00,
2013-04-20 05:30:00,49.6,47.9,29.75,WNW,289,2.0,5.0,94,0.00,,,0.12,Wunderground v.1.15,2013-04-20 09:30:00,
2013-04-20 05:35:00,49.5,47.8,29.76,West,279,2.0,5.0,94,0.00,,,0.12,Wunderground v.1.15,2013-04-20 09:35:00,
2013-04-20 05:45:00,49.2,47.3,29.76,WNW,287,2.0,5.0,93,0.00,,,0.12,Wunderground v.1.15,2013-04-20 09:45:00,
2013-04-20 05:50:00,49.1,47.2,29.77,NNW,336,2.0,5.0,93,0.00,,,0.12,Wunderground v.1.15,2013-04-20 09:50:00,
2013-04-20 05:55:00,49.1,47.2,29.77,West,262,2.0,5.0,93,0.00,,,0.12,Wunderground v.1.15,2013-04-20 09:55:00,
2013-04-20 06:00:00,48.9,46.7,29.77,ENE,57,2.0,2.0,92,0.00,,,0.12,Wunderground v.1.15,2013-04-20 10:00:00,
2013-04-20 06:05:00,48.8,46.6,29.78,WNW,286,1.0,4.0,92,0.00,,,0.12,Wunderground v.1.15,2013-04-20 10:05:00,
2013-04-20 06:15:00,48.6,45.8,29.78,NW,314,2.0,5.0,90,0.00,,,0.12,Wunderground v.1.15,2013-04-20 10:15:00,
2013-04-20 06:20:00,48.5,45.7,29.80,WNW,296,2.0,2.0,90,0.00,,,0.12,Wunderground v.1.15,2013-04-20 10:20:00,
2013-04-20 06:25:00,48.5,45.1,29.80,WNW,298,1.0,5.0,88,0.00,,,0.12,Wunderground v.1.15,2013-04-20 10:25:00,
2013-04-20 06:35:00,48.5,44.8,29.81,West,268,1.0,5.0,87,0.00,,,0.12,Wunderground v.1.15,2013-04-20 10:35:00,
2013-04-20 06:40:00,48.5,44.8,29.81,West,273,1.0,1.0,87,0.00,,,0.12,Wunderground v.1.15,2013-04-20 10:40:00,
2013-04-20 06:50:00,48.5,44.5,29.81,WNW,288,1.0,5.0,86,0.00,,,0.12,Wunderground v.1.15,2013-04-20 10:50:00,
2013-04-20 06:55:00,48.5,44.2,29.81,WNW,288,1.0,5.0,85,0.00,,,0.12,Wunderground v.1.15,2013-04-20 10:55:00,
2013-04-20 07:00:00,48.6,44.3,29.81,WNW,288,0.0,5.0,85,0.00,,,0.12,Wunderground v.1.15,2013-04-20 11:00:00,
2013-04-20 07:05:00,48.8,44.5,29.82,WNW,282,1.0,5.0,85,0.00,,,0.12,Wunderground v.1.15,2013-04-20 11:05:00,
2013-04-20 07:10:00,48.8,44.2,29.82,WNW,290,2.0,2.0,84,0.00,,,0.12,Wunderground v.1.15,2013-04-20 11:10:00,
2013-04-20 07:20:00,48.8,44.2,29.83,WNW,289,1.0,1.0,84,0.00,,,0.12,Wunderground v.1.15,2013-04-20 11:20:00,
2013-04-20 07:25:00,48.9,44.0,29.83,WNW,289,0.0,5.0,83,0.00,,,0.12,Wunderground v.1.15,2013-04-20 11:25:00,
2013-04-20 07:30:00,49.2,44.3,29.83,WNW,289,0.0,5.0,83,0.00,,,0.12,Wunderground v.1.15,2013-04-20 11:30:00,
2013-04-20 07:40:00,49.1,44.2,29.83,WNW,289,1.0,5.0,83,0.00,,,0.12,Wunderground v.1.15,2013-04-20 11:40:00,
2013-04-20 07:45:00,49.2,43.9,29.83,WNW,289,0.0,5.0,82,0.00,,,0.12,Wunderground v.1.15,2013-04-20 11:45:00,
2013-04-20 07:50:00,49.5,44.2,29.83,WNW,290,0.0,5.0,82,0.00,,,0.12,Wunderground v.1.15,2013-04-20 11:50:00,
2013-04-20 08:00:00,49.6,44.0,29.83,WNW,290,1.0,5.0,81,0.00,,,0.12,Wunderground v.1.15,2013-04-20 12:00:00,
2013-04-20 08:05:00,49.8,43.9,29.84,WNW,290,1.0,5.0,80,0.00,,,0.12,Wunderground v.1.15,2013-04-20 12:05:00,
2013-04-20 08:10:00,50.1,44.2,29.84,WNW,292,1.0,5.0,80,0.00,,,0.12,Wunderground v.1.15,2013-04-20 12:10:00,
2013-04-20 08:15:00,50.1,42.8,29.84,NW,310,2.0,5.0,76,0.00,,,0.12,Wunderground v.1.15,2013-04-20 12:15:00,
2013-04-20 08:20:00,50.5,43.6,29.84,NW,310,2.0,2.0,77,0.00,,,0.12,Wunderground v.1.15,2013-04-20 12:20:00,
2013-04-20 08:30:00,51.7,43.0,29.84,West,274,2.0,5.0,72,0.00,,,0.12,Wunderground v.1.15,2013-04-20 12:30:00,
2013-04-20 08:35:00,52.0,42.1,29.83,SSE,158,3.0,5.0,69,0.00,,,0.12,Wunderground v.1.15,2013-04-20 12:35:00,
2013-04-20 08:40:00,52.5,42.6,29.83,WNW,292,3.0,3.0,69,0.00,,,0.12,Wunderground v.1.15,2013-04-20 12:40:00,
2013-04-20 08:45:00,52.8,41.7,29.83,West,261,2.0,11.0,66,0.00,,,0.12,Wunderground v.1.15,2013-04-20 12:45:00,
2013-04-20 08:50:00,52.3,39.7,29.83,North,355,3.0,3.0,62,0.00,,,0.12,Wunderground v.1.15,2013-04-20 12:50:00,
2013-04-20 09:00:00,52.3,39.7,29.83,NW,306,4.0,5.0,62,0.00,,,0.12,Wunderground v.1.15,2013-04-20 13:00:00,
2013-04-20 09:05:00,52.5,38.1,29.84,SW,218,5.0,5.0,58,0.00,,,0.12,Wunderground v.1.15,2013-04-20 13:05:00,
2013-04-20 09:10:00,52.6,38.7,29.84,WNW,294,5.0,5.0,59,0.00,,,0.12,Wunderground v.1.15,2013-04-20 13:10:00,
2013-04-20 09:15:00,52.8,38.9,29.84,West,264,4.0,5.0,59,0.00,,,0.12,Wunderground v.1.15,2013-04-20 13:15:00,
2013-04-20 09:20:00,52.8,38.0,29.85,WNW,290,3.0,5.0,57,0.00,,,0.12,Wunderground v.1.15,2013-04-20 13:20:00,
2013-04-20 09:25:00,52.9,39.4,29.85,NW,322,2.0,5.0,60,0.00,,,0.12,Wunderground v.1.15,2013-04-20 13:25:00,
2013-04-20 09:30:00,52.6,37.3,29.85,WNW,298,3.0,5.0,56,0.00,,,0.12,Wunderground v.1.15,2013-04-20 13:30:00,
2013-04-20 09:35:00,52.3,37.1,29.86,NW,321,4.0,5.0,56,0.00,,,0.12,Wunderground v.1.15,2013-04-20 13:35:00,
2013-04-20 09:40:00,51.6,34.5,29.86,SW,221,5.0,8.0,52,0.00,,,0.12,Wunderground v.1.15,2013-04-20 13:40:00,
2013-04-20 09:45:00,51.4,34.8,29.86,NNW,333,5.0,8.0,53,0.00,,,0.12,Wunderground v.1.15,2013-04-20 13:45:00,
2013-04-20 09:55:00,51.6,35.0,29.87,NW,304,3.0,5.0,53,0.00,,,0.12,Wunderground v.1.15,2013-04-20 13:55:00,
2013-04-20 10:00:00,51.9,35.3,29.87,WNW,288,3.0,5.0,53,0.00,,,0.12,Wunderground v.1.15,2013-04-20 14:00:00,
2013-04-20 10:05:00,52.0,34.9,29.89,SW,226,3.0,5.0,52,0.00,,,0.12,Wunderground v.1.15,2013-04-20 14:05:00,
2013-04-20 10:15:00,52.2,33.1,29.89,WNW,303,4.0,5.0,48,0.00,,,0.12,Wunderground v.1.15,2013-04-20 14:15:00,
2013-04-20 10:20:00,52.5,32.8,29.89,WSW,257,3.0,3.0,47,0.00,,,0.12,Wunderground v.1.15,2013-04-20 14:20:00,
2013-04-20 10:25:00,52.8,34.2,29.89,NW,310,2.0,7.0,49,0.00,,,0.12,Wunderground v.1.15,2013-04-20 14:25:00,
2013-04-20 10:30:00,52.6,33.5,29.89,WNW,284,4.0,4.0,48,0.00,,,0.12,Wunderground v.1.15,2013-04-20 14:30:00,
2013-04-20 10:35:00,52.6,33.5,29.91,North,5,5.0,5.0,48,0.00,,,0.12,Wunderground v.1.15,2013-04-20 14:35:00,
2013-04-20 10:40:00,52.8,33.6,29.91,WSW,243,3.0,5.0,48,0.00,,,0.12,Wunderground v.1.15,2013-04-20 14:40:00,
2013-04-20 10:45:00,52.9,32.7,29.91,West,276,4.0,5.0,46,0.00,,,0.12,Wunderground v.1.15,2013-04-20 14:45:00,
2013-04-20 10:50:00,53.5,33.2,29.91,WNW,296,4.0,4.0,46,0.00,,,0.12,Wunderground v.1.15,2013-04-20 14:50:00,
2013-04-20 10:55:00,53.8,33.5,29.91,NW,312,3.0,5.0,46,0.00,,,0.12,Wunderground v.1.15,2013-04-20 14:55:00,
2013-04-20 11:00:00,53.6,31.6,29.91,West,275,3.0,5.0,43,0.00,,,0.12,Wunderground v.1.15,2013-04-20 15:00:00,
2013-04-20 11:10:00,53.3,32.5,29.92,NW,313,3.0,3.0,45,0.00,,,0.12,Wunderground v.1.15,2013-04-20 15:10:00,
2013-04-20 11:20:00,52.8,32.6,29.93,West,274,3.0,3.0,46,0.00,,,0.12,Wunderground v.1.15,2013-04-20 15:20:00,
2013-04-20 11:25:00,52.3,32.1,29.93,North,5,4.0,4.0,46,0.00,,,0.12,Wunderground v.1.15,2013-04-20 15:25:00,
2013-04-20 11:30:00,52.2,30.9,29.93,West,281,4.0,4.0,44,0.00,,,0.12,Wunderground v.1.15,2013-04-20 15:30:00,
2013-04-20 11:35:00,52.3,31.6,29.94,West,271,3.0,5.0,45,0.00,,,0.12,Wunderground v.1.15,2013-04-20 15:35:00,
2013-04-20 11:40:00,52.2,30.9,29.94,East,82,3.0,3.0,44,0.00,,,0.12,Wunderground v.1.15,2013-04-20 15:40:00,
2013-04-20 11:45:00,52.5,33.4,29.94,SW,218,3.0,5.0,48,0.00,,,0.12,Wunderground v.1.15,2013-04-20 15:45:00,
2013-04-20 11:50:00,52.3,30.4,29.94,NW,312,3.0,3.0,43,0.00,,,0.12,Wunderground v.1.15,2013-04-20 15:50:00,
2013-04-20 11:55:00,52.8,32.6,29.94,WSW,241,4.0,7.0,46,0.00,,,0.12,Wunderground v.1.15,2013-04-20 15:55:00,
2013-04-20 12:00:00,52.5,31.2,29.94,SW,221,4.0,4.0,44,0.00,,,0.12,Wunderground v.1.15,2013-04-20 16:00:00,
2013-04-20 12:05:00,52.5,31.2,29.94,SE,135,4.0,5.0,44,0.00,,,0.12,Wunderground v.1.15,2013-04-20 16:05:00,
2013-04-20 12:15:00,52.8,30.9,29.94,WNW,300,3.0,5.0,43,0.00,,,0.12,Wunderground v.1.15,2013-04-20 16:15:00,
2013-04-20 12:20:00,52.8,32.6,29.94,WNW,296,4.0,5.0,46,0.00,,,0.12,Wunderground v.1.15,2013-04-20 16:20:00,
2013-04-20 12:25:00,52.5,31.8,29.94,WNW,296,4.0,5.0,45,0.00,,,0.12,Wunderground v.1.15,2013-04-20 16:25:00,
2013-04-20 12:30:00,52.3,30.4,29.94,NW,318,4.0,4.0,43,0.00,,,0.12,Wunderground v.1.15,2013-04-20 16:30:00,
2013-04-20 12:35:00,52.5,31.2,29.93,West,260,4.0,5.0,44,0.00,,,0.12,Wunderground v.1.15,2013-04-20 16:35:00,
2013-04-20 12:40:00,53.3,31.4,29.93,NW,314,4.0,4.0,43,0.00,,,0.12,Wunderground v.1.15,2013-04-20 16:40:00,
2013-04-20 12:45:00,53.8,34.0,29.93,SW,227,4.0,8.0,47,0.00,,,0.12,Wunderground v.1.15,2013-04-20 16:45:00,
2013-04-20 12:50:00,54.4,33.5,29.93,NW,312,3.0,3.0,45,0.00,,,0.12,Wunderground v.1.15,2013-04-20 16:50:00,
2013-04-20 13:00:00,54.8,34.4,29.93,NNW,336,4.0,4.0,46,0.00,,,0.12,Wunderground v.1.15,2013-04-20 17:00:00,
2013-04-20 13:05:00,54.7,32.0,29.92,SSW,208,4.0,5.0,42,0.00,,,0.12,Wunderground v.1.15,2013-04-20 17:05:00,
2013-04-20 13:15:00,55.3,33.7,29.92,West,271,3.0,5.0,44,0.00,,,0.12,Wunderground v.1.15,2013-04-20 17:15:00,
2013-04-20 13:20:00,55.9,36.5,29.92,West,278,3.0,3.0,48,0.00,,,0.12,Wunderground v.1.15,2013-04-20 17:20:00,
2013-04-20 13:25:00,57.6,37.0,29.92,West,259,2.0,4.0,46,0.00,,,0.12,Wunderground v.1.15,2013-04-20 17:25:00,
2013-04-20 13:35:00,57.8,34.2,29.92,NW,309,4.0,5.0,41,0.00,,,0.12,Wunderground v.1.15,2013-04-20 17:35:00,
2013-04-20 13:40:00,58.0,33.2,29.92,SSE,155,5.0,5.0,39,0.00,,,0.12,Wunderground v.1.15,2013-04-20 17:40:00,
2013-04-20 13:45:00,58.4,32.2,29.92,SSW,194,5.0,5.0,37,0.00,,,0.12,Wunderground v.1.15,2013-04-20 17:45:00,
2013-04-20 13:50:00,58.7,32.5,29.92,West,261,5.0,6.0,37,0.00,,,0.12,Wunderground v.1.15,2013-04-20 17:50:00,
2013-04-20 13:55:00,58.6,33.7,29.92,SW,214,5.0,6.0,39,0.00,,,0.12,Wunderground v.1.15,2013-04-20 17:55:00,
2013-04-20 14:00:00,59.2,32.2,29.92,WSW,248,4.0,4.0,36,0.00,,,0.12,Wunderground v.1.15,2013-04-20 18:00:00,
2013-04-20 14:10:00,59.3,32.3,29.92,SSE,160,5.0,5.0,36,0.00,,,0.12,Wunderground v.1.15,2013-04-20 18:10:00,
2013-04-20 14:15:00,59.6,31.9,29.92,West,263,5.0,5.0,35,0.00,,,0.12,Wunderground v.1.15,2013-04-20 18:15:00,
2013-04-20 14:20:00,59.0,33.4,29.92,NW,322,5.0,10.0,38,0.00,,,0.12,Wunderground v.1.15,2013-04-20 18:20:00,
2013-04-20 14:25:00,59.2,32.9,29.92,SW,227,5.0,10.0,37,0.00,,,0.12,Wunderground v.1.15,2013-04-20 18:25:00,
2013-04-20 14:35:00,59.8,32.8,29.92,West,281,5.0,6.0,36,0.00,,,0.12,Wunderground v.1.15,2013-04-20 18:35:00,
2013-04-20 14:40:00,59.5,33.2,29.92,WNW,283,6.0,8.0,37,0.00,,,0.12,Wunderground v.1.15,2013-04-20 18:40:00,
2013-04-20 14:50:00,59.2,32.2,29.92,NNW,327,4.0,5.0,36,0.00,,,0.12,Wunderground v.1.15,2013-04-20 18:50:00,
2013-04-20 14:55:00,59.0,29.2,29.92,North,5,4.0,5.0,32,0.00,,,0.12,Wunderground v.1.15,2013-04-20 18:55:00,
2013-04-20 15:00:00,58.4,30.8,29.92,WNW,282,4.0,4.0,35,0.00,,,0.12,Wunderground v.1.15,2013-04-20 19:00:00,
2013-04-20 15:05:00,58.4,30.8,29.92,West,281,4.0,5.0,35,0.00,,,0.12,Wunderground v.1.15,2013-04-20 19:05:00,
2013-04-20 15:15:00,58.7,31.1,29.92,West,267,4.0,5.0,35,0.00,,,0.12,Wunderground v.1.15,2013-04-20 19:15:00,
2013-04-20 15:20:00,58.4,29.4,29.92,West,271,4.0,10.0,33,0.00,,,0.12,Wunderground v.1.15,2013-04-20 19:20:00,
2013-04-20 15:25:00,58.1,31.3,29.92,NE,37,4.0,10.0,36,0.00,,,0.12,Wunderground v.1.15,2013-04-20 19:25:00,
2013-04-20 15:30:00,58.1,29.8,29.92,SW,222,5.0,5.0,34,0.00,,,0.12,Wunderground v.1.15,2013-04-20 19:30:00,
2013-04-20 15:35:00,58.4,30.1,29.93,SW,218,5.0,5.0,34,0.00,,,0.12,Wunderground v.1.15,2013-04-20 19:35:00,
2013-04-20 15:40:00,58.7,29.6,29.93,West,268,4.0,6.0,33,0.00,,,0.12,Wunderground v.1.15,2013-04-20 19:40:00,
2013-04-20 15:45:00,58.4,30.8,29.93,SW,233,4.0,6.0,35,0.00,,,0.12,Wunderground v.1.15,2013-04-20 19:45:00,
2013-04-20 15:50:00,58.7,31.8,29.94,West,279,4.0,4.0,36,0.00,,,0.12,Wunderground v.1.15,2013-04-20 19:50:00,
2013-04-20 15:55:00,59.0,29.9,29.94,WNW,283,3.0,5.0,33,0.00,,,0.12,Wunderground v.1.15,2013-04-20 19:55:00,
2013-04-20 16:05:00,58.9,29.1,29.94,NNW,328,5.0,5.0,32,0.00,,,0.12,Wunderground v.1.15,2013-04-20 20:05:00,
2013-04-20 16:10:00,58.7,29.6,29.94,WNW,301,4.0,4.0,33,0.00,,,0.12,Wunderground v.1.15,2013-04-20 20:10:00,
2013-04-20 16:15:00,58.9,27.5,29.94,NW,304,4.0,7.0,30,0.00,,,0.12,Wunderground v.1.15,2013-04-20 20:15:00,
2013-04-20 16:25:00,58.6,28.0,29.95,WSW,257,3.0,5.0,31,0.00,,,0.12,Wunderground v.1.15,2013-04-20 20:25:00,
2013-04-20 16:30:00,58.4,30.1,29.95,South,170,4.0,4.0,34,0.00,,,0.12,Wunderground v.1.15,2013-04-20 20:30:00,
2013-04-20 16:35:00,58.4,30.1,29.95,West,277,4.0,5.0,34,0.00,,,0.12,Wunderground v.1.15,2013-04-20 20:35:00,
2013-04-20 16:40:00,58.4,28.6,29.95,WNW,296,4.0,4.0,32,0.00,,,0.12,Wunderground v.1.15,2013-04-20 20:40:00,
2013-04-20 16:45:00,58.6,28.8,29.95,WSW,237,4.0,5.0,32,0.00,,,0.12,Wunderground v.1.15,2013-04-20 20:45:00,
2013-04-20 16:55:00,58.4,29.4,29.95,SW,229,4.0,5.0,33,0.00,,,0.12,Wunderground v.1.15,2013-04-20 20:55:00,
2013-04-20 17:00:00,58.4,27.9,29.95,SW,233,4.0,4.0,31,0.00,,,0.12,Wunderground v.1.15,2013-04-20 21:00:00,
2013-04-20 17:05:00,58.0,29.0,29.97,WSW,253,4.0,5.0,33,0.00,,,0.12,Wunderground v.1.15,2013-04-20 21:05:00,
2013-04-20 17:10:00,57.6,28.7,29.97,West,269,3.0,6.0,33,0.00,,,0.12,Wunderground v.1.15,2013-04-20 21:10:00,
2013-04-20 17:15:00,57.6,26.4,29.97,WNW,285,4.0,6.0,30,0.00,,,0.12,Wunderground v.1.15,2013-04-20 21:15:00,
2013-04-20 17:20:00,58.0,29.0,29.97,NNW,327,4.0,5.0,33,0.00,,,0.12,Wunderground v.1.15,2013-04-20 21:20:00,
2013-04-20 17:25:00,58.1,27.6,29.97,WNW,300,4.0,5.0,31,0.00,,,0.12,Wunderground v.1.15,2013-04-20 21:25:00,
2013-04-20 17:30:00,57.6,27.2,29.97,NW,305,4.0,5.0,31,0.00,,,0.12,Wunderground v.1.15,2013-04-20 21:30:00,
2013-04-20 17:35:00,57.5,27.1,29.98,WNW,283,3.0,5.0,31,0.00,,,0.12,Wunderground v.1.15,2013-04-20 21:35:00,
2013-04-20 17:40:00,57.5,26.3,29.98,North,360,3.0,5.0,30,0.00,,,0.12,Wunderground v.1.15,2013-04-20 21:40:00,
2013-04-20 17:50:00,57.3,26.9,29.99,SSE,161,5.0,5.0,31,0.00,,,0.12,Wunderground v.1.15,2013-04-20 21:50:00,
2013-04-20 17:55:00,57.3,26.1,29.99,WSW,251,5.0,5.0,30,0.00,,,0.12,Wunderground v.1.15,2013-04-20 21:55:00,
2013-04-20 18:05:00,56.7,26.4,30.00,West,279,4.0,8.0,31,0.00,,,0.12,Wunderground v.1.15,2013-04-20 22:05:00,
2013-04-20 18:10:00,56.7,27.1,30.00,WNW,300,4.0,5.0,32,0.00,,,0.12,Wunderground v.1.15,2013-04-20 22:10:00,
2013-04-20 18:15:00,56.5,24.6,30.00,WSW,246,4.0,5.0,29,0.00,,,0.12,Wunderground v.1.15,2013-04-20 22:15:00,
2013-04-20 18:20:00,56.2,26.7,30.00,NW,305,3.0,5.0,32,0.00,,,0.12,Wunderground v.1.15,2013-04-20 22:20:00,
2013-04-20 18:25:00,56.2,26.7,30.00,WNW,283,2.0,5.0,32,0.00,,,0.12,Wunderground v.1.15,2013-04-20 22:25:00,
2013-04-20 18:30:00,56.5,27.0,30.00,North,360,3.0,6.0,32,0.00,,,0.12,Wunderground v.1.15,2013-04-20 22:30:00,
2013-04-20 18:40:00,56.2,27.4,30.01,WNW,298,4.0,4.0,33,0.00,,,0.12,Wunderground v.1.15,2013-04-20 22:40:00,
2013-04-20 18:45:00,55.9,25.7,30.01,West,259,4.0,5.0,31,0.00,,,0.12,Wunderground v.1.15,2013-04-20 22:45:00,
2013-04-20 18:55:00,55.4,26.0,30.02,West,281,3.0,5.0,32,0.00,,,0.12,Wunderground v.1.15,2013-04-20 22:55:00,
2013-04-20 19:00:00,55.3,25.9,30.02,NW,313,2.0,5.0,32,0.00,,,0.12,Wunderground v.1.15,2013-04-20 23:00:00,
2013-04-20 19:05:00,55.3,25.9,30.03,West,267,2.0,5.0,32,0.00,,,0.12,Wunderground v.1.15,2013-04-20 23:05:00,
2013-04-20 19:10:00,55.1,25.7,30.03,WNW,302,3.0,5.0,32,0.00,,,0.12,Wunderground v.1.15,2013-04-20 23:10:00,
2013-04-20 19:15:00,55.0,26.4,30.03,NW,305,2.0,5.0,33,0.00,,,0.12,Wunderground v.1.15,2013-04-20 23:15:00,
2013-04-20 19:20:00,54.8,25.5,30.04,NW,321,3.0,3.0,32,0.00,,,0.12,Wunderground v.1.15,2013-04-20 23:20:00,
2013-04-20 19:25:00,54.5,25.2,30.04,West,279,3.0,5.0,32,0.00,,,0.12,Wunderground v.1.15,2013-04-20 23:25:00,
2013-04-20 19:30:00,54.4,26.6,30.04,NW,314,2.0,2.0,34,0.00,,,0.12,Wunderground v.1.15,2013-04-20 23:30:00,
2013-04-20 19:35:00,54.1,26.3,30.05,NW,323,2.0,5.0,34,0.00,,,0.12,Wunderground v.1.15,2013-04-20 23:35:00,
2013-04-20 19:40:00,53.9,26.8,30.05,NW,304,2.0,2.0,35,0.00,,,0.12,Wunderground v.1.15,2013-04-20 23:40:00,
2013-04-20 19:45:00,53.6,27.9,30.05,West,279,2.0,5.0,37,0.00,,,0.12,Wunderground v.1.15,2013-04-20 23:45:00,
2013-04-20 19:50:00,53.6,27.9,30.06,WNW,289,1.0,5.0,37,0.00,,,0.12,Wunderground v.1.15,2013-04-20 23:50:00,
2013-04-20 19:55:00,53.5,27.2,30.06,WNW,286,1.0,5.0,36,0.00,,,0.12,Wunderground v.1.15,2013-04-20 23:55:00,
2013-04-20 20:00:00,53.5,25.8,30.06,WNW,294,2.0,5.0,34,0.00,,,0.12,Wunderground v.1.15,2013-04-21 00:00:00,
2013-04-20 20:10:00,53.2,26.2,30.08,West,271,2.0,2.0,35,0.00,,,0.12,Wunderground v.1.15,2013-04-21 00:10:00,
2013-04-20 20:15:00,53.1,26.8,30.08,WNW,292,2.0,5.0,36,0.00,,,0.12,Wunderground v.1.15,2013-04-21 00:15:00,
2013-04-20 20:20:00,53.1,26.1,30.09,NW,321,2.0,5.0,35,0.00,,,0.12,Wunderground v.1.15,2013-04-21 00:20:00,
2013-04-20 20:30:00,52.8,26.6,30.09,NNW,336,2.0,2.0,36,0.00,,,0.12,Wunderground v.1.15,2013-04-21 00:30:00,
2013-04-20 20:35:00,52.6,25.0,30.10,NW,323,1.0,5.0,34,0.00,,,0.12,Wunderground v.1.15,2013-04-21 00:35:00,
2013-04-20 20:40:00,52.6,26.4,30.10,WNW,292,2.0,2.0,36,0.00,,,0.12,Wunderground v.1.15,2013-04-21 00:40:00,
2013-04-20 20:45:00,52.3,25.4,30.10,North,355,2.0,5.0,35,0.00,,,0.12,Wunderground v.1.15,2013-04-21 00:45:00,
2013-04-20 20:50:00,52.0,25.8,30.12,NE,36,2.0,5.0,36,0.00,,,0.12,Wunderground v.1.15,2013-04-21 00:50:00,
2013-04-20 20:55:00,52.2,26.0,30.12,NW,304,2.0,5.0,36,0.00,,,0.12,Wunderground v.1.15,2013-04-21 00:55:00,
2013-04-20 21:00:00,52.2,26.7,30.12,NNW,327,3.0,3.0,37,0.00,,,0.12,Wunderground v.1.15,2013-04-21 01:00:00,
2013-04-20 21:05:00,51.7,27.5,30.13,West,279,3.0,5.0,39,0.00,,,0.12,Wunderground v.1.15,2013-04-21 01:05:00,
2013-04-20 21:10:00,51.4,26.6,30.13,ENE,61,3.0,5.0,38,0.00,,,0.12,Wunderground v.1.15,2013-04-21 01:10:00,
2013-04-20 21:15:00,51.6,26.1,30.13,NNW,337,3.0,5.0,37,0.00,,,0.12,Wunderground v.1.15,2013-04-21 01:15:00,
2013-04-20 21:25:00,51.7,24.9,30.15,NW,312,4.0,8.0,35,0.00,,,0.12,Wunderground v.1.15,2013-04-21 01:25:00,
2013-04-20 21:30:00,51.6,26.1,30.15,NNW,329,4.0,4.0,37,0.00,,,0.12,Wunderground v.1.15,2013-04-21 01:30:00,
2013-04-20 21:40:00,51.3,25.9,30.16,NW,325,4.0,4.0,37,0.00,,,0.12,Wunderground v.1.15,2013-04-21 01:40:00,
2013-04-20 21:45:00,51.1,26.3,30.16,NNW,347,3.0,5.0,38,0.00,,,0.12,Wunderground v.1.15,2013-04-21 01:45:00,
2013-04-20 21:50:00,51.0,25.6,30.18,NNW,328,3.0,5.0,37,0.00,,,0.12,Wunderground v.1.15,2013-04-21 01:50:00,
2013-04-20 22:00:00,50.7,26.0,30.18,NNE,14,6.0,9.0,38,0.00,,,0.12,Wunderground v.1.15,2013-04-21 02:00:00,
2013-04-20 22:05:00,50.4,27.0,30.19,WNW,302,6.0,9.0,40,0.00,,,0.12,Wunderground v.1.15,2013-04-21 02:05:00,
2013-04-20 22:10:00,49.9,27.1,30.19,NNW,338,4.0,4.0,41,0.00,,,0.12,Wunderground v.1.15,2013-04-21 02:10:00,
2013-04-20 22:15:00,49.6,26.8,30.19,NNW,342,4.0,7.0,41,0.00,,,0.12,Wunderground v.1.15,2013-04-21 02:15:00,
2013-04-20 22:20:00,49.4,27.2,30.20,NNW,332,4.0,4.0,42,0.00,,,0.12,Wunderground v.1.15,2013-04-21 02:20:00,
2013-04-20 22:25:00,48.9,26.8,30.20,NNW,341,4.0,5.0,42,0.00,,,0.12,Wunderground v.1.15,2013-04-21 02:25:00,
2013-04-20 22:35:00,48.6,25.9,30.20,North,5,5.0,9.0,41,0.00,,,0.12,Wunderground v.1.15,2013-04-21 02:35:00,
2013-04-20 22:40:00,48.5,25.2,30.20,North,9,5.0,5.0,40,0.00,,,0.12,Wunderground v.1.15,2013-04-21 02:40:00,
2013-04-20 22:50:00,47.9,25.9,30.21,NNW,338,3.0,5.0,42,0.00,,,0.12,Wunderground v.1.15,2013-04-21 02:50:00,
2013-04-20 22:55:00,47.7,25.1,30.21,NNW,344,3.0,5.0,41,0.00,,,0.12,Wunderground v.1.15,2013-04-21 02:55:00,
2013-04-20 23:00:00,47.6,25.6,30.21,NNW,333,4.0,4.0,42,0.00,,,0.12,Wunderground v.1.15,2013-04-21 03:00:00,
2013-04-20 23:05:00,47.4,26.6,30.23,NW,314,4.0,5.0,44,0.00,,,0.12,Wunderground v.1.15,2013-04-21 03:05:00,
2013-04-20 23:10:00,47.3,27.0,30.23,NNE,16,4.0,9.0,45,0.00,,,0.12,Wunderground v.1.15,2013-04-21 03:10:00,
2013-04-20 23:15:00,47.1,26.8,30.23,NNE,16,4.0,9.0,45,0.00,,,0.12,Wunderground v.1.15,2013-04-21 03:15:00,
2013-04-20 23:20:00,47.0,26.7,30.23,NNW,336,4.0,4.0,45,0.00,,,0.12,Wunderground v.1.15,2013-04-21 03:20:00,
2013-04-20 23:25:00,46.5,26.8,30.23,West,279,3.0,5.0,46,0.00,,,0.12,Wunderground v.1.15,2013-04-21 03:25:00,
2013-04-20 23:30:00,46.2,26.5,30.23,NW,319,4.0,7.0,46,0.00,,,0.12,Wunderground v.1.15,2013-04-21 03:30:00,
2013-04-20 23:35:00,46.1,26.4,30.24,NNW,329,5.0,7.0,46,0.00,,,0.12,Wunderground v.1.15,2013-04-21 03:35:00,
2013-04-20 23:40:00,45.8,26.2,30.24,NW,317,4.0,5.0,46,0.00,,,0.12,Wunderground v.1.15,2013-04-21 03:40:00,
2013-04-20 23:45:00,45.5,26.9,30.24,NNW,333,4.0,5.0,48,0.00,,,0.12,Wunderground v.1.15,2013-04-21 03:45:00,
2013-04-20 23:50:00,45.2,25.6,30.26,NNW,346,4.0,4.0,46,0.00,,,0.12,Wunderground v.1.15,2013-04-21 03:50:00,
2013-04-20 23:55:00,44.9,25.3,30.26,WNW,294,3.0,5.0,46,0.00,,,0.12,Wunderground v.1.15,2013-04-21 03:55:00,